Flag for United Kingdom Weather past 2 weeks in Cheltenham, England, United Kingdom

50 °F

Sprinkles. Passing clouds.

Feels Like: 44 °F
Forecast: N/A
Wind: 20 mph from West

Location: Staverton Private

Current Time: Nov 29, 2015 at 9:27:39 PM

Latest Report: Nov 29, 2015 at 6:50 PM

Visibility: N/A

Pressure: 29.86 "Hg

Humidity: 82%

Dew point: 45 °F

Location of CheltenhamLocation

Historic Weather in Cheltenham — Graph


Cheltenham temperature yesterday

Maximum temperature yesterday: 50 °F (at 5:20 PM)
Minimum temperature yesterday: 39 °F (at 8:20 AM)
Average temperature yesterday: 46 °F

Past Weeks' High & Low Weather Summary

High61 °F (Nov 15, 12:50 PM)100% (Nov 17, 6:50 AM)30.30 "Hg (Nov 17, 6:50 AM)
Low30 °F (Nov 23, 7:20 AM)45% (Nov 21, 2:20 PM)29.45 "Hg (Nov 17, 1:20 PM)
Average49 °F83%29.86 "Hg
* Reported Nov 15 8:20 AM — Nov 29 6:50 PM, Cheltenham, Weather by CustomWeather, © 2015

Note: Actual official high and low records may vary slightly from our data, if they occured in-between our weather recording intervals... More about our weather records


Cheltenham weather history for previous 24 hours

Time TempWeatherWind HumidityBarometerVisibility
6:50 PM
Sun, Nov 29
50 °FSprinkles. Passing clouds.20 mph82%29.86 "HgN/A
6:20 PM52 °FSprinkles. Passing clouds.13 mph88%29.83 "HgN/A
5:50 PM52 °FRain showers. Passing clouds.9 mph88%29.80 "HgN/A
5:20 PM54 °FScattered showers. Passing clouds.16 mph82%29.77 "HgN/A
4:50 PM54 °FSprinkles. Passing clouds.15 mph82%29.74 "HgN/A
4:20 PM54 °FSprinkles. Passing clouds.15 mph88%29.74 "HgN/A
3:20 PM54 °FLight rain. Broken clouds.17 mph88%29.71 "Hg4 mi
2:50 PM54 °FLight rain. Broken clouds.16 mph88%29.71 "Hg5 mi
2:20 PM54 °FLight rain. Broken clouds.15 mph88%29.71 "Hg4 mi
1:50 PM54 °FDrizzle. Partly sunny.15 mph88%29.68 "Hg5 mi
1:20 PM54 °FDrizzle. Partly sunny.16 mph88%29.68 "Hg6 mi
12:50 PM54 °FSprinkles. Scattered clouds.20 mph88%29.68 "Hg6 mi
12:20 PM54 °FSprinkles. Scattered clouds.18 mph82%29.68 "HgN/A
11:50 AM55 °FScattered showers. Scattered clouds.23 mph72%29.68 "HgN/A
11:20 AM55 °FScattered showers. Scattered clouds.22 mph67%29.68 "HgN/A
10:50 AM55 °FScattered showers. Passing clouds.23 mph67%29.68 "HgN/A
10:20 AM54 °FSprinkles. Passing clouds.17 mph77%29.71 "HgN/A
9:20 AM54 °FScattered showers. Scattered clouds.14 mph72%29.68 "HgN/A
8:50 AM54 °FScattered showers. Scattered clouds.13 mph77%29.71 "HgN/A
Weather by CustomWeather, © 2015

See weather overviewHow to use our weather pages